{"data":{"norad_id":63032,"intl_designator":"2025-034D","name":"STARLINK-32776","alt_names":[],"object_type":"PAYLOAD","status":"ACTIVE","operator":null,"country":"US","launch_date":"2025-02-18","launch_site_code":"AFETR","launch_vehicle":null,"mission":null,"orbit_class":"UNKNOWN","rcs_meters":null,"size_class":null,"mass_kg":null,"dimensions":null,"purposes":["comms"],"wikipedia_slug":null,"has_3d_model":false,"image_url":null,"decayed_at":null,"tle_current":{"epoch":"2026-05-24T18:09:07.413120Z","epoch_age_seconds":99405,"freshness":"FRESH","line1":"1 63032U 25034D   26144.75633580  .00028213  00000+0  84288-3 0  9990","line2":"2 63032  53.1584 264.7548 0000908  92.2749 267.8358 15.34404316 70735","mean_motion":15.34404316,"eccentricity":9.08e-5,"inclination_deg":53.1584,"raan_deg":264.7548,"arg_perigee_deg":92.2749,"mean_anomaly_deg":267.8358,"bstar":0.00084288,"rev_number":7073,"period_min":93.847494104676,"perigee_km":462.06926504659,"apogee_km":463.31155930464,"semimajor_km":6840.8274121756,"source":"CELESTRAK","updated_at":"2026-05-25T13:38:19.865661Z"}}}